Regional Weather Roundup
Issued by NWS

Home | Current Version | Previous Version | Text Only | Print | Product List | Glossary Off
Versions: 1 2 3 4 5 6 7 8 9 10 11 12 13 14 15 16 17 18 19 20 21 22 23 24 25 26 27 28 29 30 31 32 33 34 35 36 37 38 39 40 41 42 43 44 45 46 47 48 49 50

000
ASUS43 KDMX 301707
RWRIA

WEATHER ROUNDUP FOR IOWA
NATIONAL WEATHER SERVICE DES MOINES IA
1200 PM CDT SUN AUG 30 2015

NOTE: "FAIR" INDICATES FEW OR NO CLOUDS BELOW 12,000 FEET WITH NO
SIGNIFICANT WEATHER AND/OR OBSTRUCTIONS TO VISIBILITY.

* - THESE STATIONS ARE NOT NWS STATIONS...THUS NOT UNDER NWS
QUALITY CONTROL.  THEY ALSO DO NOT REPORT WEATHER SUCH
AS PRECIPITATION OR FOG.

IAZ001>003-012>014-020>022-031>034-043>046-301800-
   NORTHWEST IOWA

CITY           SKY/WX    TMP DP  RH WIND       PRES   REMARKS
CARROLL *      CLOUDY    68  66  94 SW10G17   30.07S
CHEROKEE *     CLOUDY    66  64  94 S10       30.05R
DENISON *      CLOUDY    66  63  88 SW8G14    30.05S
LE MARS *      CLOUDY    66  64  94 S10       30.04R
ORANGE CITY *  CLOUDY    68  64  88 S10       30.03R
SHELDON *      SUNNY     70  64  83 S9G16     30.01S
SPENCER        SUNNY     71  63  75 S12       30.04R
STORM LAKE *   PTSUNNY   68  64  88 S9        30.06F
$$

IAZ055>058-069>071-079>083-090>094-301800-
   SOUTHWEST IOWA

CITY           SKY/WX    TMP DP  RH WIND       PRES   REMARKS
ATLANTIC *     CLOUDY    70  66  88 SW8       30.09S
AUDUBON *      PTSUNNY   68  64  88 S9        30.10R FOG
CLARINDA *     CLOUDY    70  68  94 VRB5      30.11R
COUNCIL BLFS * CLOUDY    68  64  88 S10       30.08S
CRESTON *      CLOUDY    70  68  94 S6        30.11R
HARLAN  *      CLOUDY    68 -38   1 S12       30.11S
LAMONI         CLOUDY    71  69  93 VRB3      30.09S
RED OAK *      CLOUDY    70  68  94 S6        30.09S
SHENANDOAH *   CLOUDY    70  68  94 CALM      30.09F
$$

IAZ047>049-059>061-072>074-084-301800-
   CENTRAL IOWA

CITY           SKY/WX    TMP DP  RH WIND       PRES   REMARKS
AMES           CLOUDY    70  66  87 S8        30.08S
ANKENY *       CLOUDY    70  68  94 CALM      30.08F
CHARITON *     CLOUDY    72  68  88 VRB3      30.09F
DES MOINES     CLOUDY    71  65  81 SE7       30.08S
GRINNELL*      CLOUDY    70  66  88 S8        30.10S FOG
KNOXVILLE *    CLOUDY    68  66  94 SE7       30.08F FOG
MARSHALLTOWN   CLOUDY    69  66  90 S6        30.08R
PELLA *        CLOUDY    70  70 100 S3        30.11S FOG
PERRY *        CLOUDY    70  66  88 S5        30.08F
$$

IAZ004>006-015-016-023>025-035-036-301800-
   NORTH CENTRAL IOWA

CITY           SKY/WX    TMP DP  RH WIND       PRES   REMARKS
ALGONA *       CLOUDY    70  64  83 S12G18    30.06S
CLARION *      CLOUDY    70  64  83 S9        30.07S
ESTHERVILLE    SUNNY     70  64  81 S10       30.03F
FORT DODGE *   CLOUDY    72  63  73 S9        30.08S
MASON CITY     CLOUDY    69  63  81 SW9       30.08S
FOREST CITY *  CLOUDY    68  63  83 S9        30.06S
IOWA FALLS *   CLOUDY    70  64  83 S8        30.09S
$$

IAZ007>011-017>019-026>030-037>042-050>054-066-301800-
   NORTHEAST IOWA

CITY           SKY/WX    TMP DP  RH WIND       PRES   REMARKS
CEDAR RAPIDS   CLOUDY    70  67  90 SE7       30.09S
CHARLES CITY * CLOUDY    68  66  94 SW8G17    30.08F
CLINTON *      CLOUDY    70  64  83 CALM      30.12S
DECORAH *      CLOUDY    68  64  88 SW7       30.07F
DUBUQUE        CLOUDY    69  61  75 CALM      30.10F
MONTICELLO *   CLOUDY    72  63  73 VRB7      30.09F
OELWEIN *        N/A     70  64  83 S7        30.10R
WATERLOO       CLOUDY    70  64  81 S8        30.07S
$$

IAZ064-065-067-068-078-301800-
   EAST CENTRAL IOWA

CITY           SKY/WX    TMP DP  RH WIND       PRES   REMARKS
DAVENPORT      MOSUNNY   72  64  76 CALM      30.10F
IOWA CITY      CLOUDY    70  65  84 SE7       30.10F
MT. PLEASANT * CLOUDY    73  68  83 CALM      30.09F HAZE
MUSCATINE *    PTSUNNY   73  66  78 CALM      30.09F
QUAD CITIES    SUNNY     74  65  73 CALM      30.09F
$$

IAZ062-063-075>077-085>089-095>099-301800-
   SOUTHEAST IOWA

CITY           SKY/WX    TMP DP  RH WIND       PRES   REMARKS
BURLINGTON     MOSUNNY   75  69  81 N3        30.08F
FAIRFIELD *    CLOUDY    70  66  88 CALM      30.10S
FORT MADISON * PTSUNNY   73  72  94 CALM      30.09F FOG
KEOKUK *       SUNNY     75  70  83 VRB3      30.07F
OSKALOOSA *    CLOUDY    68  66  94 S3        30.10S FOG
CENTERVILLE *  CLOUDY    72  68  88 SE5       30.10F
OTTUMWA        CLOUDY    70  68  93 S5        30.08S
WASHINGTON *     N/A    N/A N/A N/A MISG        N/A
$$

ABBREVIATIONS USED IN REMARKS
   TC - TEMPERATURES IN CELSIUS
  WCI - WIND CHILL INDEX
   HX - HEAT INDEX
  VSB - VISIBILITY
$$



USA.gov is the U.S. government's official web portal to all federal, state and local government web resources and services.